• In Uzbekistan
  • List of Countries
  • For 7 days
  • Water Temperature
  • Satellite Maps
  • Weather Map
  • Weather Widgets
  • user-avatar
    Login

    Hourly Weather Hrazdan

    Today, 23 October, Monday

    Time Temperature Precipitation Wind Pressure Humidity
    00:00 +5°C° 0 mm 2 mps 610 mmHg 47%
    01:00 +5°C° 0 mm 2 mps 610 mmHg 48%
    02:00 +5°C° 0 mm 2 mps 610 mmHg 49%
    03:00 +5°C° 0 mm 2 mps 609 mmHg 50%
    04:00 +5°C° 0 mm 2 mps 610 mmHg 52%
    05:00 +4°C° 0 mm 2 mps 610 mmHg 54%
    06:00 +4°C° 0 mm 2 mps 610 mmHg 55%
    07:00 +6°C° 0 mm 2 mps 611 mmHg 51%
    08:00 +7°C° 0 mm 2 mps 612 mmHg 46%
    09:00 +9°C° 0 mm 2 mps 613 mmHg 41%
    10:00 +10°C° 0 mm 3 mps 613 mmHg 39%
    11:00 +11°C° 0 mm 3 mps 613 mmHg 36%
    12:00 +12°C° 0 mm 3 mps 614 mmHg 34%
    13:00 +12°C° 0 mm 3 mps 614 mmHg 34%
    14:00 +12°C° 0 mm 3 mps 613 mmHg 33%
    15:00 +13°C° 0 mm 2 mps 613 mmHg 33%
    16:00 +12°C° 0 mm 2 mps 613 mmHg 38%
    17:00 +9°C° 0 mm 2 mps 613 mmHg 44%
    18:00 +8°C° 0 mm 1 mps 612 mmHg 50%
    19:00 +8°C° 0 mm 1 mps 613 mmHg 51%
    20:00 +7°C° 0 mm 1 mps 613 mmHg 53%
    21:00 +7°C° 0 mm 1 mps 613 mmHg 54%
    22:00 +6°C° 0 mm 1 mps 613 mmHg 56%
    23:00 +6°C° 0 mm 1 mps 613 mmHg 58%

    Tomorrow, 24 October, Tuesday

    Time Temperature Precipitation Wind Pressure Humidity
    00:00 +5°C° 0 mm 1 mps 613 mmHg 60%
    01:00 +5°C° 0 mm 1 mps 613 mmHg 61%
    02:00 +5°C° 0 mm 1 mps 613 mmHg 61%
    03:00 +5°C° 0 mm 1 mps 613 mmHg 62%
    04:00 +5°C° 0 mm 1 mps 613 mmHg 62%
    05:00 +5°C° 0 mm 1 mps 613 mmHg 62%
    06:00 +4°C° 0 mm 1 mps 613 mmHg 62%
    07:00 +6°C° 0 mm 1 mps 614 mmHg 55%
    08:00 +7°C° 0 mm 2 mps 614 mmHg 47%
    09:00 +10°C° 0 mm 2 mps 615 mmHg 40%
    10:00 +12°C° 0 mm 2 mps 615 mmHg 37%
    11:00 +12°C° 0 mm 3 mps 615 mmHg 33%
    12:00 +13°C° 0 mm 3 mps 616 mmHg 30%
    13:00 +13°C° 0 mm 3 mps 615 mmHg 30%
    14:00 +13°C° 0 mm 3 mps 615 mmHg 30%
    15:00 +13°C° 0 mm 3 mps 615 mmHg 31%
    16:00 +12°C° 0 mm 3 mps 615 mmHg 36%
    17:00 +10°C° 0 mm 2 mps 614 mmHg 41%
    18:00 +8°C° 0 mm 2 mps 614 mmHg 45%
    19:00 +8°C° 0 mm 2 mps 614 mmHg 45%
    20:00 +7°C° 0 mm 2 mps 614 mmHg 44%
    21:00 +7°C° 0 mm 2 mps 614 mmHg 44%
    22:00 +7°C° 0 mm 2 mps 614 mmHg 44%
    23:00 +7°C° 0 mm 2 mps 614 mmHg 44%

    Day after tomorrow, 25 October, Wednesday

    Time Temperature Precipitation Wind Pressure Humidity
    00:00 +6°C° 0 mm 2 mps 615 mmHg 45%
    01:00 +6°C° 0 mm 2 mps 615 mmHg 45%
    02:00 +6°C° 0 mm 2 mps 615 mmHg 46%
    03:00 +6°C° 0 mm 2 mps 615 mmHg 47%
    04:00 +6°C° 0 mm 2 mps 615 mmHg 47%
    05:00 +6°C° 0 mm 2 mps 615 mmHg 47%
    06:00 +6°C° 0 mm 2 mps 615 mmHg 48%
    07:00 +8°C° 0 mm 2 mps 616 mmHg 44%
    08:00 +10°C° 0 mm 3 mps 616 mmHg 39%
    09:00 +12°C° 0 mm 3 mps 617 mmHg 35%
    10:00 +13°C° 0 mm 3 mps 617 mmHg 33%
    11:00 +14°C° 0 mm 3 mps 617 mmHg 32%
    12:00 +15°C° 0 mm 4 mps 617 mmHg 30%
    13:00 +15°C° 0 mm 4 mps 617 mmHg 30%
    14:00 +15°C° 0 mm 4 mps 617 mmHg 30%
    15:00 +16°C° 0 mm 3 mps 617 mmHg 30%
    16:00 +14°C° 0 mm 3 mps 616 mmHg 34%
    17:00 +13°C° 0 mm 2 mps 616 mmHg 38%
    18:00 +10°C° 0 mm 2 mps 615 mmHg 42%
    19:00 +9°C° 0 mm 2 mps 615 mmHg 43%
    20:00 +9°C° 0 mm 2 mps 615 mmHg 43%
    21:00 +9°C° 0 mm 2 mps 615 mmHg 43%
    22:00 +8°C° 0 mm 2 mps 615 mmHg 44%
    23:00 +8°C° 0 mm 2 mps 615 mmHg 44%

    26 October, Thursday

    Time Temperature Precipitation Wind Pressure Humidity
    00:00 +8°C° 0 mm 2 mps 615 mmHg 44%
    01:00 +8°C° 0 mm 2 mps 614 mmHg 45%
    02:00 +7°C° 0 mm 2 mps 614 mmHg 45%
    03:00 +7°C° 0 mm 2 mps 614 mmHg 45%
    04:00 +7°C° 0 mm 2 mps 614 mmHg 45%
    05:00 +7°C° 0 mm 2 mps 613 mmHg 45%
    06:00 +7°C° 0 mm 2 mps 613 mmHg 44%
    07:00 +9°C° 0 mm 3 mps 614 mmHg 40%
    08:00 +11°C° 0 mm 3 mps 615 mmHg 36%
    09:00 +13°C° 0 mm 3 mps 615 mmHg 32%
    10:00 +14°C° 0 mm 4 mps 615 mmHg 30%
    11:00 +15°C° 0 mm 4 mps 615 mmHg 28%
    12:00 +16°C° 0 mm 5 mps 615 mmHg 26%
    13:00 +16°C° 0 mm 5 mps 615 mmHg 26%
    14:00 +16°C° 0 mm 5 mps 614 mmHg 26%
    15:00 +17°C° 0 mm 4 mps 614 mmHg 26%
    16:00 +14°C° 0 mm 3 mps 614 mmHg 31%
    17:00 +13°C° 0 mm 2 mps 613 mmHg 36%
    18:00 +11°C° 0 mm 1 mps 613 mmHg 41%
    19:00 +10°C° 0 mm 1 mps 613 mmHg 43%
    20:00 +9°C° 0 mm 1 mps 613 mmHg 44%
    21:00 +9°C° 0 mm 1 mps 613 mmHg 46%
    22:00 +8°C° 0 mm 1 mps 613 mmHg 48%
    23:00 +8°C° 0 mm 1 mps 613 mmHg 51%

    27 October, Friday

    Time Temperature Precipitation Wind Pressure Humidity
    00:00 +8°C° 0 mm 1 mps 613 mmHg 53%
    01:00 +7°C° 0 mm 1 mps 613 mmHg 55%
    02:00 +7°C° 0 mm 1 mps 613 mmHg 57%
    03:00 +7°C° 0 mm 1 mps 613 mmHg 59%
    04:00 +7°C° 0 mm 1 mps 613 mmHg 64%
    05:00 +6°C° 0 mm 1 mps 613 mmHg 68%
    06:00 +6°C° 0 mm 1 mps 613 mmHg 72%
    07:00 +7°C° 0 mm 1 mps 614 mmHg 67%
    08:00 +8°C° 0 mm 1 mps 614 mmHg 62%
    09:00 +10°C° 0 mm 1 mps 615 mmHg 57%
    10:00 +10°C° 0 mm 2 mps 615 mmHg 54%
    11:00 +12°C° 0 mm 2 mps 615 mmHg 50%
    12:00 +12°C° 0 mm 3 mps 615 mmHg 47%
    13:00 +12°C° 0 mm 3 mps 615 mmHg 47%
    14:00 +12°C° 0 mm 3 mps 615 mmHg 47%
    15:00 +12°C° 0 mm 3 mps 614 mmHg 47%
    16:00 +10°C° 0 mm 2 mps 614 mmHg 55%
    17:00 +9°C° 0 mm 2 mps 613 mmHg 62%
    18:00 +8°C° 0 mm 1 mps 613 mmHg 69%
    19:00 +8°C° 0 mm 1 mps 613 mmHg 70%
    20:00 +7°C° 0 mm 1 mps 613 mmHg 71%
    21:00 +7°C° 0 mm 1 mps 613 mmHg 72%
    22:00 +7°C° 0 mm 1 mps 612 mmHg 70%
    23:00 +6°C° 0 mm 1 mps 612 mmHg 68%

    28 October, Saturday

    Time Temperature Precipitation Wind Pressure Humidity
    00:00 +6°C° 0 mm 1 mps 612 mmHg 67%
    01:00 +6°C° 0 mm 1 mps 612 mmHg 66%
    02:00 +6°C° 0 mm 1 mps 612 mmHg 65%
    03:00 +5°C° 0 mm 2 mps 611 mmHg 65%
    04:00 +4°C° 0 mm 2 mps 611 mmHg 63%
    05:00 +4°C° 0 mm 2 mps 611 mmHg 62%
    06:00 +4°C° 0 mm 2 mps 611 mmHg 60%
    07:00 +6°C° 0 mm 2 mps 612 mmHg 53%
    08:00 +8°C° 0 mm 3 mps 613 mmHg 45%
    09:00 +10°C° 0 mm 3 mps 613 mmHg 38%
    10:00 +11°C° 0 mm 4 mps 613 mmHg 34%
    11:00 +12°C° 0 mm 5 mps 613 mmHg 31%
    12:00 +14°C° 0 mm 6 mps 613 mmHg 28%
    13:00 +14°C° 0 mm 6 mps 613 mmHg 28%
    14:00 +14°C° 0 mm 6 mps 613 mmHg 28%
    15:00 +14°C° 0 mm 6 mps 613 mmHg 28%
    16:00 +13°C° 0 mm 5 mps 612 mmHg 34%
    17:00 +11°C° 0 mm 4 mps 611 mmHg 39%
    18:00 +9°C° 0 mm 3 mps 611 mmHg 44%
    19:00 +9°C° 0 mm 3 mps 611 mmHg 49%
    20:00 +8°C° 0 mm 3 mps 610 mmHg 53%
    21:00 +8°C° 0 mm 3 mps 610 mmHg 58%
    22:00 +8°C° 0 mm 3 mps 610 mmHg 61%
    23:00 +8°C° 0 mm 3 mps 610 mmHg 64%

    29 October, Sunday

    Time Temperature Precipitation Wind Pressure Humidity
    00:00 +8°C° 0 mm 3 mps 610 mmHg 66%
    01:00 +8°C° 0.1 mm 3 mps 610 mmHg 69%
    02:00 +8°C° 0.1 mm 3 mps 610 mmHg 71%
    03:00 +8°C° 0.1 mm 3 mps 610 mmHg 73%
    04:00 +7°C° 0.1 mm 3 mps 609 mmHg 75%
    05:00 +7°C° 0.1 mm 2 mps 609 mmHg 77%
    06:00 +7°C° 0.1 mm 2 mps 609 mmHg 79%
    07:00 +8°C° 0.1 mm 3 mps 609 mmHg 72%
    08:00 +9°C° 0.1 mm 3 mps 610 mmHg 66%
    09:00 +10°C° 0.1 mm 4 mps 610 mmHg 60%
    10:00 +11°C° 0.1 mm 4 mps 610 mmHg 55%
    11:00 +12°C° 0.1 mm 5 mps 610 mmHg 51%
    12:00 +13°C° 0.1 mm 6 mps 610 mmHg 47%
    13:00 +13°C° 0 mm 6 mps 610 mmHg 46%
    14:00 +13°C° 0 mm 5 mps 609 mmHg 45%
    15:00 +13°C° 0 mm 5 mps 609 mmHg 44%
    16:00 +12°C° 0 mm 4 mps 609 mmHg 48%
    17:00 +10°C° 0 mm 3 mps 608 mmHg 52%
    18:00 +9°C° 0 mm 2 mps 608 mmHg 56%
    19:00 +8°C° 0 mm 2 mps 608 mmHg 56%
    20:00 +8°C° 0 mm 3 mps 608 mmHg 57%
    21:00 +8°C° 0 mm 3 mps 608 mmHg 57%
    22:00 +7°C° 0.1 mm 3 mps 608 mmHg 59%
    23:00 +7°C° 0.1 mm 3 mps 607 mmHg 60%
    Show more